Year,Month,Day,Hour,Minute,Value (Times are PST for windspeed in km/hr)
2006,11,15,00,00,2.40
2006,11,15,00,01,2.10
2006,11,15,00,02,1.20
2006,11,15,00,03,1.90
2006,11,15,00,04,2.80
2006,11,15,00,05,1.30
2006,11,15,00,06,2.40
2006,11,15,00,07,1.10
2006,11,15,00,08,2.00
2006,11,15,00,09,2.70
2006,11,15,00,10,2.90
2006,11,15,00,11,2.20
2006,11,15,00,12,1.60
2006,11,15,00,13,0.80
2006,11,15,00,14,0.70
2006,11,15,00,15,1.50
2006,11,15,00,16,1.60
2006,11,15,00,17,1.60
2006,11,15,00,18,1.60
2006,11,15,00,19,1.30
2006,11,15,00,20,0.10
2006,11,15,00,21,1.50
2006,11,15,00,22,0.30
2006,11,15,00,23,0.10
2006,11,15,00,24,2.30
2006,11,15,00,25,1.50
2006,11,15,00,26,2.90
2006,11,15,00,27,3.70
2006,11,15,00,28,1.10
2006,11,15,00,29,3.80
2006,11,15,00,30,1.50
2006,11,15,00,31,3.20
2006,11,15,00,32,4.40
2006,11,15,00,33,5.60
2006,11,15,00,34,4.80
2006,11,15,00,35,3.80
2006,11,15,00,36,6.70
2006,11,15,00,37,5.80
2006,11,15,00,38,4.40
2006,11,15,00,39,3.90
2006,11,15,00,40,5.10
2006,11,15,00,41,5.10
2006,11,15,00,42,4.00
2006,11,15,00,43,3.80
2006,11,15,00,44,3.50
2006,11,15,00,45,3.10
2006,11,15,00,46,5.20
2006,11,15,00,47,3.30
2006,11,15,00,48,7.30
2006,11,15,00,49,6.90
2006,11,15,00,50,6.40
2006,11,15,00,51,8.30
2006,11,15,00,52,2.70
2006,11,15,00,53,6.40
2006,11,15,00,54,5.90
2006,11,15,00,55,7.80
2006,11,15,00,56,6.80
2006,11,15,00,57,6.00
2006,11,15,00,58,6.20
2006,11,15,00,59,4.30
2006,11,15,01,00,6.50
2006,11,15,01,01,4.30
2006,11,15,01,02,5.80
2006,11,15,01,03,7.20
2006,11,15,01,04,5.90
2006,11,15,01,05,0.50
2006,11,15,01,06,1.00
2006,11,15,01,07,2.30
2006,11,15,01,08,1.70
2006,11,15,01,09,3.50
2006,11,15,01,10,3.10
2006,11,15,01,11,1.60
2006,11,15,01,12,1.60
2006,11,15,01,13,1.90
2006,11,15,01,14,2.40
2006,11,15,01,15,1.80
2006,11,15,01,16,3.10
2006,11,15,01,17,5.20
2006,11,15,01,18,4.80
2006,11,15,01,19,3.80
2006,11,15,01,20,2.80
2006,11,15,01,21,2.40
2006,11,15,01,22,3.00
2006,11,15,01,23,3.30
2006,11,15,01,24,3.40
2006,11,15,01,25,3.60
2006,11,15,01,26,0.40
2006,11,15,01,27,0.00
2006,11,15,01,28,1.60
2006,11,15,01,29,1.20
2006,11,15,01,30,0.40
2006,11,15,01,31,0.90
2006,11,15,01,32,2.10
2006,11,15,01,33,0.60
2006,11,15,01,34,0.00
2006,11,15,01,35,0.20
2006,11,15,01,36,0.20
2006,11,15,01,37,0.60
2006,11,15,01,38,2.30
2006,11,15,01,39,1.00
2006,11,15,01,40,1.60
2006,11,15,01,41,1.40
2006,11,15,01,42,2.50
2006,11,15,01,43,1.50
2006,11,15,01,44,0.80
2006,11,15,01,45,0.40
2006,11,15,01,46,1.50
2006,11,15,01,47,3.70
2006,11,15,01,48,2.80
2006,11,15,01,49,4.80
2006,11,15,01,50,0.20
2006,11,15,01,51,1.80
2006,11,15,01,52,3.70
2006,11,15,01,53,3.40
2006,11,15,01,54,2.20
2006,11,15,01,55,4.10
2006,11,15,01,56,3.60
2006,11,15,01,57,2.40
2006,11,15,01,58,1.50
2006,11,15,01,59,3.50
2006,11,15,02,00,1.20
2006,11,15,02,01,0.80
2006,11,15,02,02,0.80
2006,11,15,02,03,0.50
2006,11,15,02,04,0.00
2006,11,15,02,05,0.00
2006,11,15,02,06,0.00
2006,11,15,02,07,0.10
2006,11,15,02,08,0.10
2006,11,15,02,09,0.20
2006,11,15,02,10,1.90
2006,11,15,02,11,1.80
2006,11,15,02,12,2.30
2006,11,15,02,13,0.90
2006,11,15,02,14,0.10
2006,11,15,02,15,0.00
2006,11,15,02,16,1.00
2006,11,15,02,17,0.40
2006,11,15,02,18,0.20
2006,11,15,02,19,1.40
2006,11,15,02,20,2.70
2006,11,15,02,21,2.30
2006,11,15,02,22,0.40
2006,11,15,02,23,0.00
2006,11,15,02,24,0.40
2006,11,15,02,25,0.60
2006,11,15,02,26,0.00
2006,11,15,02,27,0.50
2006,11,15,02,28,0.20
2006,11,15,02,29,1.10
2006,11,15,02,30,0.60
2006,11,15,02,31,0.00
2006,11,15,02,32,0.00
2006,11,15,02,33,0.50
2006,11,15,02,34,0.90
2006,11,15,02,35,0.10
2006,11,15,02,36,0.10
2006,11,15,02,37,0.50
2006,11,15,02,38,0.00
2006,11,15,02,39,0.10
2006,11,15,02,40,0.00
2006,11,15,02,41,0.00
2006,11,15,02,42,0.00
2006,11,15,02,43,0.60
2006,11,15,02,44,0.70
2006,11,15,02,45,0.20
2006,11,15,02,46,0.30
2006,11,15,02,47,2.00
2006,11,15,02,48,1.10
2006,11,15,02,49,0.10
2006,11,15,02,50,1.50
2006,11,15,02,51,0.10
2006,11,15,02,52,1.00
2006,11,15,02,53,2.60
2006,11,15,02,54,1.90
2006,11,15,02,55,2.30
2006,11,15,02,56,5.50
2006,11,15,02,57,1.80
2006,11,15,02,58,0.30
2006,11,15,02,59,1.10
2006,11,15,03,00,1.20
2006,11,15,03,01,0.60
2006,11,15,03,02,2.00
2006,11,15,03,03,2.10
2006,11,15,03,04,4.00
2006,11,15,03,05,4.50
2006,11,15,03,06,3.70
2006,11,15,03,07,2.60
2006,11,15,03,08,2.10
2006,11,15,03,09,1.30
2006,11,15,03,10,2.50
2006,11,15,03,11,3.50
2006,11,15,03,12,3.40
2006,11,15,03,13,1.90
2006,11,15,03,14,0.40
2006,11,15,03,15,0.00
2006,11,15,03,16,1.10
2006,11,15,03,17,3.10
2006,11,15,03,18,0.40
2006,11,15,03,19,1.30
2006,11,15,03,20,2.10
2006,11,15,03,21,3.50
2006,11,15,03,22,2.80
2006,11,15,03,23,3.90
2006,11,15,03,24,3.60
2006,11,15,03,25,1.50
2006,11,15,03,26,0.00
2006,11,15,03,27,0.00
2006,11,15,03,28,0.10
2006,11,15,03,29,1.10
2006,11,15,03,30,2.50
2006,11,15,03,31,0.70
2006,11,15,03,32,0.10
2006,11,15,03,33,0.00
2006,11,15,03,34,0.00
2006,11,15,03,35,0.00
2006,11,15,03,36,0.00
2006,11,15,03,37,0.00
2006,11,15,03,38,0.00
2006,11,15,03,39,0.00
2006,11,15,03,40,1.20
2006,11,15,03,41,1.60
2006,11,15,03,42,0.10
2006,11,15,03,43,0.60
2006,11,15,03,44,0.60
2006,11,15,03,45,1.60
2006,11,15,03,46,1.60
2006,11,15,03,47,1.10
2006,11,15,03,48,1.30
2006,11,15,03,49,2.10
2006,11,15,03,50,1.30
2006,11,15,03,51,0.50
2006,11,15,03,52,0.40
2006,11,15,03,53,0.60
2006,11,15,03,54,0.00
2006,11,15,03,55,0.00
2006,11,15,03,56,0.00
2006,11,15,03,57,0.60
2006,11,15,03,58,0.00
2006,11,15,03,59,0.00
2006,11,15,04,00,0.00
2006,11,15,04,01,2.40
2006,11,15,04,02,0.80
2006,11,15,04,03,0.00
2006,11,15,04,04,0.00
2006,11,15,04,05,0.60
2006,11,15,04,06,0.10
2006,11,15,04,07,0.00
2006,11,15,04,08,0.00
2006,11,15,04,09,0.00
2006,11,15,04,10,0.00
2006,11,15,04,11,2.00
2006,11,15,04,12,3.90
2006,11,15,04,13,1.20
2006,11,15,04,14,0.00
2006,11,15,04,15,0.00
2006,11,15,04,16,0.00
2006,11,15,04,17,0.00
2006,11,15,04,18,0.00
2006,11,15,04,19,0.00
2006,11,15,04,20,0.00
2006,11,15,04,21,0.00
2006,11,15,04,22,0.00
2006,11,15,04,23,0.00
2006,11,15,04,24,0.00
2006,11,15,04,25,0.60
2006,11,15,04,26,2.10
2006,11,15,04,27,0.50
2006,11,15,04,28,0.00
2006,11,15,04,29,0.20
2006,11,15,04,30,1.50
2006,11,15,04,31,1.60
2006,11,15,04,32,1.60
2006,11,15,04,33,1.60
2006,11,15,04,34,1.20
2006,11,15,04,35,0.30
2006,11,15,04,36,0.80
2006,11,15,04,37,0.10
2006,11,15,04,38,0.40
2006,11,15,04,39,1.80
2006,11,15,04,40,5.80
2006,11,15,04,41,5.30
2006,11,15,04,42,3.80
2006,11,15,04,43,3.70
2006,11,15,04,44,3.10
2006,11,15,04,45,4.30
2006,11,15,04,46,3.90
2006,11,15,04,47,3.80
2006,11,15,04,48,4.20
2006,11,15,04,49,7.20
2006,11,15,04,50,4.10
2006,11,15,04,51,4.80
2006,11,15,04,52,4.90
2006,11,15,04,53,4.50
2006,11,15,04,54,6.60
2006,11,15,04,55,3.90
2006,11,15,04,56,3.50
2006,11,15,04,57,4.80
2006,11,15,04,58,7.50
2006,11,15,04,59,10.80
2006,11,15,05,00,6.40
2006,11,15,05,01,15.80
2006,11,15,05,02,13.10
2006,11,15,05,03,9.40
2006,11,15,05,04,15.60
2006,11,15,05,05,7.50
2006,11,15,05,06,6.70
2006,11,15,05,07,10.90
2006,11,15,05,08,11.80
2006,11,15,05,09,15.70
2006,11,15,05,10,10.00
2006,11,15,05,11,6.50
2006,11,15,05,12,6.40
2006,11,15,05,13,7.50
2006,11,15,05,14,10.80
2006,11,15,05,15,6.90
2006,11,15,05,16,4.70
2006,11,15,05,17,7.90
2006,11,15,05,18,8.10
2006,11,15,05,19,7.00
2006,11,15,05,20,8.70
2006,11,15,05,21,9.50
2006,11,15,05,22,8.10
2006,11,15,05,23,10.10
2006,11,15,05,24,7.20
2006,11,15,05,25,8.90
2006,11,15,05,26,9.80
2006,11,15,05,27,8.60
2006,11,15,05,28,6.20
2006,11,15,05,29,6.40
2006,11,15,05,30,12.90
2006,11,15,05,31,11.50
2006,11,15,05,32,13.20
2006,11,15,05,33,13.30
2006,11,15,05,34,16.20
2006,11,15,05,35,11.80
2006,11,15,05,36,14.30
2006,11,15,05,37,12.20
2006,11,15,05,38,10.50
2006,11,15,05,39,10.60
2006,11,15,05,40,9.90
2006,11,15,05,41,8.10
2006,11,15,05,42,12.80
2006,11,15,05,43,14.40
2006,11,15,05,44,11.00
2006,11,15,05,45,13.90
2006,11,15,05,46,14.10
2006,11,15,05,47,8.90
2006,11,15,05,48,9.00
2006,11,15,05,49,9.70
2006,11,15,05,50,8.40
2006,11,15,05,51,10.40
2006,11,15,05,52,11.70
2006,11,15,05,53,15.70
2006,11,15,05,54,11.90
2006,11,15,05,55,7.90
2006,11,15,05,56,12.20
2006,11,15,05,57,13.50
2006,11,15,05,58,10.30
2006,11,15,05,59,7.50
2006,11,15,06,00,7.20
2006,11,15,06,01,8.00
2006,11,15,06,02,12.10
2006,11,15,06,03,17.30
2006,11,15,06,04,12.70
2006,11,15,06,05,14.10
2006,11,15,06,06,12.00
2006,11,15,06,07,11.10
2006,11,15,06,08,9.00
2006,11,15,06,09,12.00
2006,11,15,06,10,13.30
2006,11,15,06,11,15.50
2006,11,15,06,12,8.60
2006,11,15,06,13,10.70
2006,11,15,06,14,14.00
2006,11,15,06,15,16.30
2006,11,15,06,16,16.60
2006,11,15,06,17,22.10
2006,11,15,06,18,16.90
2006,11,15,06,19,24.40
2006,11,15,06,20,15.20
2006,11,15,06,21,32.70
2006,11,15,06,22,33.80
2006,11,15,06,23,33.80
2006,11,15,06,24,21.90
2006,11,15,06,25,7.50
2006,11,15,06,26,15.80
2006,11,15,06,27,20.60
2006,11,15,06,28,17.60
2006,11,15,06,29,17.20
2006,11,15,06,30,20.40
2006,11,15,06,31,30.20
2006,11,15,06,32,22.50
2006,11,15,06,33,15.30
2006,11,15,06,34,18.10
2006,11,15,06,35,16.40
2006,11,15,06,36,16.10
2006,11,15,06,37,20.30
2006,11,15,06,38,21.40
2006,11,15,06,39,16.50
2006,11,15,06,40,14.90
2006,11,15,06,41,20.10
2006,11,15,06,42,15.60
2006,11,15,06,43,24.70
2006,11,15,06,44,16.10
2006,11,15,06,45,27.30
2006,11,15,06,46,22.60
2006,11,15,06,47,19.90
2006,11,15,06,48,21.30
2006,11,15,06,49,21.90
2006,11,15,06,50,22.30
2006,11,15,06,51,15.50
2006,11,15,06,52,18.50
2006,11,15,06,53,16.90
2006,11,15,06,54,23.80
2006,11,15,06,55,23.90
2006,11,15,06,56,22.20
2006,11,15,06,57,20.10
2006,11,15,06,58,19.60
2006,11,15,06,59,19.30
2006,11,15,07,00,19.30
2006,11,15,07,01,19.30
2006,11,15,07,02,22.00
2006,11,15,07,03,25.70
2006,11,15,07,04,23.00
2006,11,15,07,05,22.10
2006,11,15,07,06,21.80
2006,11,15,07,07,18.50
2006,11,15,07,08,17.70
2006,11,15,07,09,13.40
2006,11,15,07,10,16.30
2006,11,15,07,11,22.60
2006,11,15,07,12,29.10
2006,11,15,07,13,25.50
2006,11,15,07,14,27.40
2006,11,15,07,15,17.60
2006,11,15,07,16,19.60
2006,11,15,07,17,21.00
2006,11,15,07,18,15.90
2006,11,15,07,19,23.70
2006,11,15,07,20,27.80
2006,11,15,07,21,23.00
2006,11,15,07,22,20.80
2006,11,15,07,23,24.90
2006,11,15,07,24,18.90
2006,11,15,07,25,25.70
2006,11,15,07,26,21.80
2006,11,15,07,27,27.10
2006,11,15,07,28,21.30
2006,11,15,07,29,16.60
2006,11,15,07,30,14.20
2006,11,15,07,31,23.40
2006,11,15,07,32,27.30
2006,11,15,07,33,16.20
2006,11,15,07,34,20.40
2006,11,15,07,35,15.70
2006,11,15,07,36,16.80
2006,11,15,07,37,15.40
2006,11,15,07,38,23.50
2006,11,15,07,39,18.40
2006,11,15,07,40,16.30
2006,11,15,07,41,23.80
2006,11,15,07,42,25.80
2006,11,15,07,43,22.30
2006,11,15,07,44,21.70
2006,11,15,07,45,14.50
2006,11,15,07,46,18.10
2006,11,15,07,47,14.00
2006,11,15,07,48,21.50
2006,11,15,07,49,9.80
2006,11,15,07,50,12.20
2006,11,15,07,51,19.20
2006,11,15,07,52,19.90
2006,11,15,07,53,22.00
2006,11,15,07,54,19.50
2006,11,15,07,55,17.00
2006,11,15,07,56,15.30
2006,11,15,07,57,14.50
2006,11,15,07,58,18.90
2006,11,15,07,59,19.80
2006,11,15,08,00,22.50
2006,11,15,08,01,24.10
2006,11,15,08,02,24.60
2006,11,15,08,03,14.80
2006,11,15,08,04,16.70
2006,11,15,08,05,22.40
2006,11,15,08,06,24.50
2006,11,15,08,07,20.50
2006,11,15,08,08,17.40
2006,11,15,08,09,22.50
2006,11,15,08,10,17.00
2006,11,15,08,11,12.50
2006,11,15,08,12,14.30
2006,11,15,08,13,18.10
2006,11,15,08,14,23.10
2006,11,15,08,15,11.90
2006,11,15,08,16,15.20
2006,11,15,08,17,19.10
2006,11,15,08,18,11.20
2006,11,15,08,19,13.70
2006,11,15,08,20,23.40
2006,11,15,08,21,26.60
2006,11,15,08,22,27.40
2006,11,15,08,23,22.90
2006,11,15,08,24,13.30
2006,11,15,08,25,23.50
2006,11,15,08,26,16.50
2006,11,15,08,27,20.60
2006,11,15,08,28,19.50
2006,11,15,08,29,17.20
2006,11,15,08,30,14.30
2006,11,15,08,31,20.90
2006,11,15,08,32,18.90
2006,11,15,08,33,25.10
2006,11,15,08,34,15.60
2006,11,15,08,35,20.60
2006,11,15,08,36,20.20
2006,11,15,08,37,26.50
2006,11,15,08,38,24.20
2006,11,15,08,39,33.90
2006,11,15,08,40,33.10
2006,11,15,08,41,19.20
2006,11,15,08,42,20.40
2006,11,15,08,43,20.10
2006,11,15,08,44,23.50
2006,11,15,08,45,27.40
2006,11,15,08,46,22.30
2006,11,15,08,47,28.30
2006,11,15,08,48,27.40
2006,11,15,08,49,21.70
2006,11,15,08,50,32.80
2006,11,15,08,51,24.00
2006,11,15,08,52,34.30
2006,11,15,08,53,25.30
2006,11,15,08,54,22.90
2006,11,15,08,55,24.90
2006,11,15,08,56,28.00
2006,11,15,08,57,23.60
2006,11,15,08,58,31.60
2006,11,15,08,59,31.30
2006,11,15,09,00,28.00
2006,11,15,09,01,33.60
2006,11,15,09,02,25.80
2006,11,15,09,03,26.10
2006,11,15,09,04,33.20
2006,11,15,09,05,27.00
2006,11,15,09,06,28.30
2006,11,15,09,07,28.90
2006,11,15,09,08,30.80
2006,11,15,09,09,28.90
2006,11,15,09,10,29.40
2006,11,15,09,11,31.20
2006,11,15,09,12,28.60
2006,11,15,09,13,23.70
2006,11,15,09,14,21.60
2006,11,15,09,15,24.50
2006,11,15,09,16,28.30
2006,11,15,09,17,23.60
2006,11,15,09,18,26.10
2006,11,15,09,19,33.00
2006,11,15,09,20,19.00
2006,11,15,09,21,19.20
2006,11,15,09,22,22.90
2006,11,15,09,23,24.20
2006,11,15,09,24,24.00
2006,11,15,09,25,31.80
2006,11,15,09,26,29.60
2006,11,15,09,27,19.30
2006,11,15,09,28,24.40
2006,11,15,09,29,34.70
2006,11,15,09,30,21.60
2006,11,15,09,31,36.40
2006,11,15,09,32,25.40
2006,11,15,09,33,24.00
2006,11,15,09,34,23.40
2006,11,15,09,35,27.30
2006,11,15,09,36,24.50
2006,11,15,09,37,24.00
2006,11,15,09,38,22.70
2006,11,15,09,39,28.50
2006,11,15,09,40,26.90
2006,11,15,09,41,26.20
2006,11,15,09,42,31.00
2006,11,15,09,43,22.20
2006,11,15,09,44,38.60
2006,11,15,09,45,31.30
2006,11,15,09,46,27.80
2006,11,15,09,47,34.10
2006,11,15,09,48,24.80
2006,11,15,09,49,25.50
2006,11,15,09,50,22.50
2006,11,15,09,51,27.60
2006,11,15,09,52,26.90
2006,11,15,09,53,28.60
2006,11,15,09,54,21.70
2006,11,15,09,55,20.30
2006,11,15,09,56,31.10
2006,11,15,09,57,31.30
2006,11,15,09,58,29.00
2006,11,15,09,59,31.20
2006,11,15,10,00,28.60
2006,11,15,10,01,33.90
2006,11,15,10,02,28.50
2006,11,15,10,03,40.20
2006,11,15,10,04,40.20
2006,11,15,10,05,40.20
2006,11,15,10,06,40.20
2006,11,15,10,07,40.20
2006,11,15,10,08,40.20
2006,11,15,10,09,36.50
2006,11,15,10,10,36.90
2006,11,15,10,11,28.00
2006,11,15,10,12,21.70
2006,11,15,10,13,27.90
2006,11,15,10,14,33.00
2006,11,15,10,15,32.10
2006,11,15,10,16,23.30
2006,11,15,10,17,27.40
2006,11,15,10,18,29.40
2006,11,15,10,19,26.80
2006,11,15,10,20,24.70
2006,11,15,10,21,21.60
2006,11,15,10,22,21.40
2006,11,15,10,23,33.40
2006,11,15,10,24,23.00
2006,11,15,10,25,23.90
2006,11,15,10,26,24.70
2006,11,15,10,27,25.70
2006,11,15,10,28,25.70
2006,11,15,10,29,20.50
2006,11,15,10,30,23.50
2006,11,15,10,31,18.80
2006,11,15,10,32,12.70
2006,11,15,10,33,18.00
2006,11,15,10,34,12.60
2006,11,15,10,35,24.20
2006,11,15,10,36,24.30
2006,11,15,10,37,31.00
2006,11,15,10,38,23.20
2006,11,15,10,39,21.30
2006,11,15,10,40,21.50
2006,11,15,10,41,23.20
2006,11,15,10,42,26.10
2006,11,15,10,43,23.20
2006,11,15,10,44,25.60
2006,11,15,10,45,24.10
2006,11,15,10,46,28.80
2006,11,15,10,47,23.90
2006,11,15,10,48,30.50
2006,11,15,10,49,22.20
2006,11,15,10,50,25.80
2006,11,15,10,51,24.50
2006,11,15,10,52,21.50
2006,11,15,10,53,31.40
2006,11,15,10,54,30.50
2006,11,15,10,55,31.90
2006,11,15,10,56,22.50
2006,11,15,10,57,20.90
2006,11,15,10,58,19.30
2006,11,15,10,59,17.60
2006,11,15,11,00,16.90
2006,11,15,11,01,22.30
2006,11,15,11,02,11.60
2006,11,15,11,03,9.60
2006,11,15,11,04,23.60
2006,11,15,11,05,29.30
2006,11,15,11,06,20.60
2006,11,15,11,07,31.50
2006,11,15,11,08,30.80
2006,11,15,11,09,29.50
2006,11,15,11,10,27.90
2006,11,15,11,11,21.30
2006,11,15,11,12,26.40
2006,11,15,11,13,34.00
2006,11,15,11,14,21.50
2006,11,15,11,15,27.50
2006,11,15,11,16,24.30
2006,11,15,11,17,17.50
2006,11,15,11,18,31.50
2006,11,15,11,19,25.40
2006,11,15,11,20,21.10
2006,11,15,11,21,29.90
2006,11,15,11,22,27.70
2006,11,15,11,23,28.70
2006,11,15,11,24,32.80
2006,11,15,11,25,35.40
2006,11,15,11,26,31.20
2006,11,15,11,27,31.50
2006,11,15,11,28,15.30
2006,11,15,11,29,21.90
2006,11,15,11,30,19.40
2006,11,15,11,31,27.60
2006,11,15,11,32,22.50
2006,11,15,11,33,14.80
2006,11,15,11,34,24.60
2006,11,15,11,35,20.00
2006,11,15,11,36,20.40
2006,11,15,11,37,20.10
2006,11,15,11,38,29.50
2006,11,15,11,39,27.00
2006,11,15,11,40,22.50
2006,11,15,11,41,21.20
2006,11,15,11,42,16.20
2006,11,15,11,43,26.10
2006,11,15,11,44,19.90
2006,11,15,11,45,23.40
2006,11,15,11,46,21.00
2006,11,15,11,47,16.00
2006,11,15,11,48,23.80
2006,11,15,11,49,26.70
2006,11,15,11,50,22.50
2006,11,15,11,51,24.30
2006,11,15,11,52,14.00
2006,11,15,11,53,27.80
2006,11,15,11,54,19.60
2006,11,15,11,55,21.90
2006,11,15,11,56,19.40
2006,11,15,11,57,12.70
2006,11,15,11,58,7.60
2006,11,15,11,59,14.20
2006,11,15,12,00,16.20
2006,11,15,12,01,9.20
2006,11,15,12,02,15.20
2006,11,15,12,03,9.50
2006,11,15,12,04,12.90
2006,11,15,12,05,15.90
2006,11,15,12,06,16.60
2006,11,15,12,07,13.80
2006,11,15,12,08,17.90
2006,11,15,12,09,17.20
2006,11,15,12,10,21.70
2006,11,15,12,11,17.80
2006,11,15,12,12,14.60
2006,11,15,12,13,16.10
2006,11,15,12,14,18.40
2006,11,15,12,15,13.50
2006,11,15,12,16,20.90
2006,11,15,12,17,26.70
2006,11,15,12,18,22.70
2006,11,15,12,19,17.60
2006,11,15,12,20,15.50
2006,11,15,12,21,20.10
2006,11,15,12,22,22.00
2006,11,15,12,23,11.30
2006,11,15,12,24,10.70
2006,11,15,12,25,21.00
2006,11,15,12,26,27.30
2006,11,15,12,27,20.50
2006,11,15,12,28,20.60
2006,11,15,12,29,24.50
2006,11,15,12,30,23.10
2006,11,15,12,31,26.90
2006,11,15,12,32,27.40
2006,11,15,12,33,27.40
2006,11,15,12,34,27.40
2006,11,15,12,35,19.70
2006,11,15,12,36,23.80
2006,11,15,12,37,22.50
2006,11,15,12,38,22.50
2006,11,15,12,39,20.70
2006,11,15,12,40,17.10
2006,11,15,12,41,20.20
2006,11,15,12,42,16.80
2006,11,15,12,43,11.10
2006,11,15,12,44,11.30
2006,11,15,12,45,11.30
2006,11,15,12,46,11.30
2006,11,15,12,47,13.90
2006,11,15,12,48,16.30
2006,11,15,12,49,22.60
2006,11,15,12,50,24.80
2006,11,15,12,51,22.50
2006,11,15,12,52,23.00
2006,11,15,12,53,29.10
2006,11,15,12,54,14.30
2006,11,15,12,55,14.90
2006,11,15,12,56,20.30
2006,11,15,12,57,18.40
2006,11,15,12,58,22.40
2006,11,15,12,59,16.20
2006,11,15,13,00,15.20
2006,11,15,13,01,12.30
2006,11,15,13,02,13.20
2006,11,15,13,03,15.50
2006,11,15,13,04,17.10
2006,11,15,13,05,13.20
2006,11,15,13,06,15.50
2006,11,15,13,07,16.20
2006,11,15,13,08,14.80
2006,11,15,13,09,12.90
2006,11,15,13,10,11.10
2006,11,15,13,11,20.30
2006,11,15,13,12,13.40
2006,11,15,13,13,17.60
2006,11,15,13,14,14.30
2006,11,15,13,15,19.50
2006,11,15,13,16,20.40
2006,11,15,13,17,22.90
2006,11,15,13,18,23.20
2006,11,15,13,19,24.10
2006,11,15,13,20,21.50
2006,11,15,13,21,19.50
2006,11,15,13,22,16.60
2006,11,15,13,23,9.40
2006,11,15,13,24,6.20
2006,11,15,13,25,7.60
2006,11,15,13,26,6.60
2006,11,15,13,27,13.30
2006,11,15,13,28,6.40
2006,11,15,13,29,4.30
2006,11,15,13,30,5.00
2006,11,15,13,31,7.80
2006,11,15,13,32,6.30
2006,11,15,13,33,8.80
2006,11,15,13,34,11.90
2006,11,15,13,35,6.80
2006,11,15,13,36,11.90
2006,11,15,13,37,7.90
2006,11,15,13,38,8.10
2006,11,15,13,39,7.00
2006,11,15,13,40,1.30
2006,11,15,13,41,5.00
2006,11,15,13,42,3.80
2006,11,15,13,43,3.60
2006,11,15,13,44,5.00
2006,11,15,13,45,6.80
2006,11,15,13,46,4.00
2006,11,15,13,47,3.20
2006,11,15,13,48,4.20
2006,11,15,13,49,13.10
2006,11,15,13,50,11.00
2006,11,15,13,51,8.70
2006,11,15,13,52,6.50
2006,11,15,13,53,9.50
2006,11,15,13,54,12.90
2006,11,15,13,55,12.70
2006,11,15,13,56,10.80
2006,11,15,13,57,15.00
2006,11,15,13,58,10.60
2006,11,15,13,59,24.40
2006,11,15,14,00,20.00
2006,11,15,14,01,9.00
2006,11,15,14,02,8.10
2006,11,15,14,03,12.70
2006,11,15,14,04,10.60
2006,11,15,14,05,18.80
2006,11,15,14,06,20.50
2006,11,15,14,07,13.90
2006,11,15,14,08,17.10
2006,11,15,14,09,17.80
2006,11,15,14,10,18.60
2006,11,15,14,11,20.70
2006,11,15,14,12,19.00
2006,11,15,14,13,17.70
2006,11,15,14,14,17.70
2006,11,15,14,15,17.70
2006,11,15,14,16,16.60
2006,11,15,14,17,22.80
2006,11,15,14,18,17.60
2006,11,15,14,19,20.30
2006,11,15,14,20,16.20
2006,11,15,14,21,20.80
2006,11,15,14,22,14.30
2006,11,15,14,23,12.70
2006,11,15,14,24,12.70
2006,11,15,14,25,14.80
2006,11,15,14,26,11.50
2006,11,15,14,27,8.30
2006,11,15,14,28,16.80
2006,11,15,14,29,17.70
2006,11,15,14,30,12.70
2006,11,15,14,31,14.10
2006,11,15,14,32,18.60
2006,11,15,14,33,13.90
2006,11,15,14,34,13.40
2006,11,15,14,35,22.50
2006,11,15,14,36,23.50
2006,11,15,14,37,21.40
2006,11,15,14,38,17.80
2006,11,15,14,39,18.80
2006,11,15,14,40,21.20
2006,11,15,14,41,18.10
2006,11,15,14,42,16.40
2006,11,15,14,43,20.90
2006,11,15,14,44,20.60
2006,11,15,14,45,20.90
2006,11,15,14,46,15.10
2006,11,15,14,47,24.10
2006,11,15,14,48,19.90
2006,11,15,14,49,19.80
2006,11,15,14,50,19.80
2006,11,15,14,51,11.30
2006,11,15,14,52,18.30
2006,11,15,14,53,21.10
2006,11,15,14,54,23.10
2006,11,15,14,55,22.50
2006,11,15,14,56,23.10
2006,11,15,14,57,20.70
2006,11,15,14,58,22.30
2006,11,15,14,59,21.10
2006,11,15,15,00,25.40
2006,11,15,15,01,20.30
2006,11,15,15,02,24.60
2006,11,15,15,03,23.80
2006,11,15,15,04,24.90
2006,11,15,15,05,19.00
2006,11,15,15,06,23.50
2006,11,15,15,07,21.30
2006,11,15,15,08,19.60
2006,11,15,15,09,16.30
2006,11,15,15,10,20.80
2006,11,15,15,11,20.20
2006,11,15,15,12,18.30
2006,11,15,15,13,17.20
2006,11,15,15,14,17.90
2006,11,15,15,15,18.80
2006,11,15,15,16,20.90
2006,11,15,15,17,17.10
2006,11,15,15,18,19.00
2006,11,15,15,19,20.10
2006,11,15,15,20,14.70
2006,11,15,15,21,21.30
2006,11,15,15,22,15.80
2006,11,15,15,23,19.70
2006,11,15,15,24,19.10
2006,11,15,15,25,21.40
2006,11,15,15,26,17.10
2006,11,15,15,27,13.40
2006,11,15,15,28,13.80
2006,11,15,15,29,12.00
2006,11,15,15,30,15.80
2006,11,15,15,31,22.00
2006,11,15,15,32,19.10
2006,11,15,15,33,17.80
2006,11,15,15,34,11.30
2006,11,15,15,35,12.60
2006,11,15,15,36,16.20
2006,11,15,15,37,19.60
2006,11,15,15,38,19.30
2006,11,15,15,39,19.30
2006,11,15,15,40,19.30
2006,11,15,15,41,19.30
2006,11,15,15,42,19.30
2006,11,15,15,43,19.30
2006,11,15,15,44,24.90
2006,11,15,15,45,27.70
2006,11,15,15,46,22.30
2006,11,15,15,47,26.70
2006,11,15,15,48,24.10
2006,11,15,15,49,23.00
2006,11,15,15,50,20.20
2006,11,15,15,51,22.10
2006,11,15,15,52,18.70
2006,11,15,15,53,16.60
2006,11,15,15,54,17.70
2006,11,15,15,55,18.10
2006,11,15,15,56,23.40
2006,11,15,15,57,24.00
2006,11,15,15,58,23.40
2006,11,15,15,59,22.50
2006,11,15,16,00,23.90
2006,11,15,16,01,21.10
2006,11,15,16,02,21.30
2006,11,15,16,03,11.70
2006,11,15,16,04,21.60
2006,11,15,16,05,21.90
2006,11,15,16,06,20.50
2006,11,15,16,07,19.60
2006,11,15,16,08,22.80
2006,11,15,16,09,23.20
2006,11,15,16,10,18.00
2006,11,15,16,11,14.30
2006,11,15,16,12,15.40
2006,11,15,16,13,21.70
2006,11,15,16,14,25.10
2006,11,15,16,15,22.10
2006,11,15,16,16,19.80
2006,11,15,16,17,17.90
2006,11,15,16,18,19.20
2006,11,15,16,19,20.00
2006,11,15,16,20,15.10
2006,11,15,16,21,20.20
2006,11,15,16,22,14.10
2006,11,15,16,23,11.40
2006,11,15,16,24,14.60
2006,11,15,16,25,13.20
2006,11,15,16,26,12.40
2006,11,15,16,27,21.10
2006,11,15,16,28,18.70
2006,11,15,16,29,13.10
2006,11,15,16,30,23.70
2006,11,15,16,31,15.90
2006,11,15,16,32,13.70
2006,11,15,16,33,15.90
2006,11,15,16,34,18.80
2006,11,15,16,35,15.20
2006,11,15,16,36,14.70
2006,11,15,16,37,11.30
2006,11,15,16,38,17.70
2006,11,15,16,39,12.50
2006,11,15,16,40,12.10
2006,11,15,16,41,17.10
2006,11,15,16,42,13.80
2006,11,15,16,43,13.50
2006,11,15,16,44,18.30
2006,11,15,16,45,19.40
2006,11,15,16,46,16.90
2006,11,15,16,47,15.00
2006,11,15,16,48,18.70
2006,11,15,16,49,18.30
2006,11,15,16,50,19.80
2006,11,15,16,51,18.40
2006,11,15,16,52,15.00
2006,11,15,16,53,15.70
2006,11,15,16,54,12.30
2006,11,15,16,55,16.10
2006,11,15,16,56,16.70
2006,11,15,16,57,17.00
2006,11,15,16,58,16.80
2006,11,15,16,59,14.30
2006,11,15,17,00,19.80
2006,11,15,17,01,15.00
2006,11,15,17,02,13.80
2006,11,15,17,03,11.20
2006,11,15,17,04,11.40
2006,11,15,17,05,12.90
2006,11,15,17,06,15.00
2006,11,15,17,07,12.10
2006,11,15,17,08,11.60
2006,11,15,17,09,14.80
2006,11,15,17,10,12.90
2006,11,15,17,11,16.20
2006,11,15,17,12,15.60
2006,11,15,17,13,12.80
2006,11,15,17,14,18.40
2006,11,15,17,15,21.60
2006,11,15,17,16,14.80
2006,11,15,17,17,20.10
2006,11,15,17,18,20.60
2006,11,15,17,19,19.40
2006,11,15,17,20,17.60
2006,11,15,17,21,18.80
2006,11,15,17,22,20.60
2006,11,15,17,23,29.90
2006,11,15,17,24,27.20
2006,11,15,17,25,24.30
2006,11,15,17,26,20.50
2006,11,15,17,27,21.90
2006,11,15,17,28,21.10
2006,11,15,17,29,19.20
2006,11,15,17,30,21.20
2006,11,15,17,31,20.90
2006,11,15,17,32,23.30
2006,11,15,17,33,19.30
2006,11,15,17,34,19.80
2006,11,15,17,35,21.00